星链-34457 (STARLINK-34457)

导读

STARLINK-34457是美国太空探索技术公司(SpaceX)星链(Starlink)互联网星座中的卫星,于2025年6月13日发射升空。星链计划旨在构建全球卫星互联网星座,该卫星入轨后为全球偏远、难以部署地面网络的区域提供高速互联网接入服务,进一步推进星链星座组网部署,扩展星座的服务覆盖范围与网络容量。

基本信息
目录编号:
64368
目录名称:
STARLINK-34457
国际标识:
2025-126AA
轨道中心:
EARTH
卫星名称:
星链-34457
卫星全名:
星链-34457 (STARLINK-34457)
卫星状态:
在轨 (已飞行448 天)
发射日期:
2025-06-13 UTC
国别 :
美国 (US)
星等 :
--
轨道信息
数据来源 国际轨道数据
星历时间: 2026-09-04T14:00:02+0800
9小时前
查看轨道信息
半长轴: 6855.227km
偏心率: 0.0003273
轨道倾角: 70.000°
近地点辐角 267.388°
升交点赤经 303.813°
平近点角 291.237°
近地点: 474.846km
远地点: 479.334km
周期: 94.144分钟
每日圈数: 15.295726
详细信息
固有亮度:
5
最大亮度:
2.5
卫星平台:
Starlink V1.0
覆盖范围:
全球
运营商:
太空探索技术公司
运营商所在国:
美国
制造商(研发单位):
太空探索技术公司
制造商所在国:
美国
使用方式:
暂无
卫星简介
Starlink 计划是 SpaceX 推出的全球卫星互联网项目,通过发射低轨道卫星,为全球尤其是偏远地区提供高速、低延迟的互联网服务。自 2019 年起,Starlink 已部署数千颗卫星,旨在缩小全球数字鸿沟,推动互联网普及。该项目还为军事、航空等行业提供通信支持,带来广泛经济效益。
2D轨道图
3D轨道图
轨道高度分析图
轨道倾角分析图
轨道综合分析图
查看轨道综合分析图
交会数据列表
事件ID 空间交会对象 最接近时刻(TCA) 交会距离 交会风险概率(CRP) 交会风险指数(CRI) 操作
CDM_260903-120106-436806-624621
2026-09-03T
12:01:35+0000
0.798 km
远距离
5.009144E-5 中风险 0.69
CDM_260906-230905-764006-436821
2026-09-06T
23:09:17+0000
1.762 km
极远距离
3.585349E-6 低风险 0.46
CDM_260905-040606-264106-436821
2026-09-05T
04:06:01+0000
1.909 km
极远距离
1.649417E-6 低风险 0.39
CDM_260906-141706-312006-436821
2026-09-06T
14:17:21+0000
2.478 km
极远距离
1.557393E-6 低风险 0.39
CDM_260903-044406-332906-436821
2026-09-03T
04:44:15+0000
2.797 km
极远距离
1.335125E-6 低风险 0.38
CDM_260906-054605-841606-436821
2026-09-06T
05:46:23+0000
2.867 km
极远距离
1.298696E-6 低风险 0.37
CDM_260904-133405-711906-436821
2026-09-04T
13:34:32+0000
2.944 km
极远距离
8.372304E-7 极低风险 0.33